VLG115 LFPO-LEZL

Flight info

Callsign VLG115
Flight time N/A
Altitude 35000
Route AGOPA DCT ARKIP DCT ARNAV DCT LMG DCT UVELI DCT OSMOB DCT ARVID DCT PPN DCT NOLSA DCT ALEPO DCT VASUM DCT BANEV DCT BAN DCT GOTOR DCT KAMPO DCT MONTO DCT MOLIN DCT HIJ
Aircraft A321/M-SDE3FGHIRWY/LB1

Departure

Time N/A
Airport Paris-Orly Airport (LFPO)

Arrival

Time 2026-05-03 22:13
Airport Seville Airport (LEZL)
Time Latitude Longitude Altitude Speed Heading
2026-05-03 20:15 47.40759 1.71878 25020 ft 390 kts 198°
2026-05-03 20:15 47.38150 1.70706 25339 ft 393 kts 198°
2026-05-03 20:15 47.35531 1.69532 25705 ft 394 kts 198°
2026-05-03 20:15 47.32905 1.68355 26077 ft 395 kts 199°
2026-05-03 20:16 47.30297 1.67190 26431 ft 396 kts 199°
2026-05-03 20:16 47.27658 1.66013 26783 ft 397 kts 199°
2026-05-03 20:16 47.25009 1.64831 27166 ft 398 kts 199°
2026-05-03 20:16 47.22445 1.63357 27539 ft 396 kts 208°
2026-05-03 20:17 47.20027 1.61418 27893 ft 397 kts 209°
2026-05-03 20:17 47.17604 1.59461 28227 ft 398 kts 209°
2026-05-03 20:17 47.15178 1.57494 28548 ft 399 kts 209°
2026-05-03 20:17 47.12743 1.55513 28860 ft 400 kts 210°
2026-05-03 20:18 47.10299 1.53524 29209 ft 401 kts 210°
2026-05-03 20:18 47.07862 1.51546 29684 ft 398 kts 210°
2026-05-03 20:18 47.05440 1.49590 30153 ft 395 kts 210°
2026-05-03 20:18 47.03032 1.47651 30548 ft 393 kts 210°
2026-05-03 20:19 47.00634 1.45722 30912 ft 392 kts 210°
2026-05-03 20:19 46.98272 1.43820 31258 ft 391 kts 210°
2026-05-03 20:19 46.95892 1.41902 31600 ft 390 kts 210°
2026-05-03 20:19 46.93519 1.39992 31924 ft 389 kts 210°
2026-05-03 20:20 46.91137 1.38083 32276 ft 389 kts 210°
2026-05-03 20:20 46.88767 1.36188 32607 ft 387 kts 210°
2026-05-03 20:20 46.86405 1.34303 32951 ft 386 kts 210°
2026-05-03 20:20 46.84043 1.32417 33285 ft 385 kts 211°
2026-05-03 20:21 46.81696 1.30541 33623 ft 384 kts 211°
2026-05-03 20:21 46.79354 1.28666 33943 ft 383 kts 211°
2026-05-03 20:21 46.77022 1.26799 34210 ft 383 kts 211°
2026-05-03 20:21 46.74680 1.24930 34429 ft 384 kts 211°
2026-05-03 20:22 46.72333 1.23062 34609 ft 385 kts 211°
2026-05-03 20:22 46.69975 1.21188 34826 ft 386 kts 211°
2026-05-03 20:22 46.67610 1.19309 34944 ft 387 kts 211°
2026-05-03 20:23 46.62878 1.15548 34974 ft 387 kts 211°
2026-05-03 20:23 46.58175 1.11816 34970 ft 388 kts 211°
2026-05-03 20:24 46.53429 1.08067 34971 ft 388 kts 210°
2026-05-03 20:24 46.48681 1.04337 34972 ft 388 kts 210°
2026-05-03 20:25 46.43932 1.00593 34973 ft 389 kts 210°
2026-05-03 20:25 46.39175 0.96847 34981 ft 389 kts 210°
2026-05-03 20:26 46.34414 0.93120 34982 ft 389 kts 210°
2026-05-03 20:26 46.29649 0.89390 34985 ft 389 kts 210°
2026-05-03 20:27 46.24884 0.85668 34988 ft 389 kts 210°
2026-05-03 20:27 46.20121 0.81954 34988 ft 389 kts 210°
2026-05-03 20:28 46.15350 0.78250 34992 ft 389 kts 210°
2026-05-03 20:28 46.10581 0.74553 34993 ft 389 kts 210°
2026-05-03 20:29 46.05833 0.70874 34997 ft 389 kts 210°
2026-05-03 20:29 46.01054 0.67177 34997 ft 389 kts 210°
2026-05-03 20:30 45.96281 0.63485 34973 ft 390 kts 210°
2026-05-03 20:30 45.91498 0.59800 34973 ft 390 kts 209°
2026-05-03 20:31 45.86701 0.56119 34979 ft 391 kts 209°
2026-05-03 20:31 45.81901 0.52440 34983 ft 391 kts 209°
2026-05-03 20:32 45.77099 0.48763 34978 ft 391 kts 209°
2026-05-03 20:32 45.72286 0.45085 34976 ft 392 kts 209°
2026-05-03 20:33 45.67492 0.41430 34978 ft 393 kts 209°
2026-05-03 20:33 45.62659 0.37752 35006 ft 393 kts 209°
2026-05-03 20:34 45.57840 0.34092 35003 ft 392 kts 209°
2026-05-03 20:34 45.53016 0.30441 34975 ft 393 kts 209°
2026-05-03 20:35 45.48190 0.26791 34978 ft 393 kts 209°
2026-05-03 20:35 45.43360 0.23134 34979 ft 393 kts 209°
2026-05-03 20:36 45.38531 0.19487 34980 ft 393 kts 209°
2026-05-03 20:36 45.33688 0.15845 34971 ft 394 kts 209°
2026-05-03 20:37 45.28831 0.12202 34976 ft 395 kts 209°
2026-05-03 20:37 45.23968 0.08569 34981 ft 395 kts 209°
2026-05-03 20:38 45.19094 0.04930 34968 ft 396 kts 209°
2026-05-03 20:38 45.14215 0.01278 34974 ft 397 kts 209°
2026-05-03 20:39 45.09354 -0.02352 34991 ft 397 kts 208°
2026-05-03 20:39 45.05255 -0.05400 34995 ft 397 kts 208°
2026-05-03 20:40 44.99568 -0.09616 34992 ft 397 kts 209°
2026-05-03 20:40 44.94668 -0.13243 34986 ft 397 kts 209°
2026-05-03 20:41 44.90565 -0.16279 34989 ft 397 kts 209°
2026-05-03 20:41 44.85667 -0.19896 34991 ft 397 kts 209°
2026-05-03 20:42 44.80767 -0.23500 34996 ft 397 kts 209°
2026-05-03 20:42 44.75893 -0.27084 34993 ft 397 kts 209°
2026-05-03 20:43 44.70993 -0.30688 34994 ft 397 kts 208°
2026-05-03 20:43 44.66091 -0.34267 34988 ft 397 kts 208°
2026-05-03 20:44 44.61190 -0.37850 34970 ft 397 kts 209°
2026-05-03 20:44 44.56296 -0.41422 34969 ft 397 kts 209°
2026-05-03 20:45 44.51392 -0.44990 34968 ft 397 kts 209°
2026-05-03 20:45 44.46485 -0.48559 34965 ft 397 kts 209°
2026-05-03 20:46 44.41571 -0.52129 34949 ft 397 kts 209°
2026-05-03 20:46 44.36653 -0.55686 34952 ft 398 kts 209°
2026-05-03 20:47 44.31725 -0.59245 34958 ft 399 kts 209°
2026-05-03 20:47 44.26792 -0.62802 34962 ft 399 kts 209°
2026-05-03 20:48 44.21850 -0.66358 34959 ft 399 kts 209°
2026-05-03 20:48 44.16909 -0.69910 34965 ft 399 kts 209°
2026-05-03 20:49 44.11965 -0.73451 34967 ft 399 kts 209°
2026-05-03 20:49 44.07018 -0.76992 34996 ft 399 kts 209°
2026-05-03 20:50 44.02073 -0.80521 34980 ft 399 kts 209°
2026-05-03 20:50 43.97143 -0.84036 34978 ft 398 kts 209°
2026-05-03 20:51 43.92210 -0.87552 34977 ft 398 kts 209°
2026-05-03 20:51 43.87276 -0.91061 34973 ft 398 kts 209°
2026-05-03 20:52 43.82365 -0.94539 34951 ft 399 kts 209°
2026-05-03 20:52 43.77417 -0.98042 34954 ft 399 kts 209°
2026-05-03 20:53 43.72435 -1.01570 34955 ft 400 kts 209°
2026-05-03 20:53 43.67818 -1.04825 34960 ft 400 kts 209°
2026-05-03 20:54 43.63048 -1.08175 34962 ft 400 kts 209°
2026-05-03 20:54 43.55610 -1.13394 34966 ft 401 kts 209°
2026-05-03 20:55 43.50635 -1.16884 34982 ft 401 kts 209°
2026-05-03 20:55 43.45660 -1.20359 34985 ft 401 kts 209°
2026-05-03 20:56 43.40681 -1.23830 34979 ft 401 kts 209°
2026-05-03 20:56 43.35706 -1.27294 34974 ft 401 kts 209°
2026-05-03 20:57 43.30723 -1.30766 34984 ft 401 kts 209°
2026-05-03 20:57 43.25739 -1.34228 34988 ft 401 kts 209°
2026-05-03 20:58 43.20760 -1.37686 34977 ft 401 kts 208°
2026-05-03 20:58 43.15784 -1.41129 34982 ft 400 kts 208°
2026-05-03 20:59 43.10807 -1.44564 34991 ft 400 kts 209°
2026-05-03 20:59 43.05827 -1.47992 34989 ft 400 kts 208°
2026-05-03 21:00 43.01685 -1.50839 34991 ft 401 kts 209°
2026-05-03 21:00 42.95893 -1.54826 34993 ft 401 kts 208°
2026-05-03 21:01 42.90898 -1.58242 34999 ft 401 kts 208°
2026-05-03 21:01 42.85905 -1.61655 35018 ft 401 kts 208°
2026-05-03 21:02 42.80926 -1.65058 35021 ft 400 kts 209°
2026-05-03 21:02 42.75942 -1.68454 35019 ft 400 kts 208°
2026-05-03 21:03 42.70954 -1.71831 35016 ft 400 kts 208°
2026-05-03 21:03 42.65963 -1.75191 35017 ft 400 kts 208°
2026-05-03 21:04 42.60977 -1.78553 35016 ft 400 kts 208°
2026-05-03 21:04 42.55979 -1.81916 34995 ft 401 kts 208°
2026-05-03 21:05 42.50974 -1.85263 34991 ft 401 kts 208°
2026-05-03 21:05 42.45962 -1.88602 34990 ft 401 kts 208°
2026-05-03 21:06 42.40940 -1.91951 35000 ft 402 kts 208°
2026-05-03 21:06 42.35953 -1.95271 34976 ft 403 kts 208°
2026-05-03 21:07 42.30919 -1.98623 34977 ft 404 kts 208°
2026-05-03 21:07 42.25876 -2.01981 34981 ft 404 kts 208°
2026-05-03 21:08 42.20815 -2.05344 34991 ft 405 kts 208°
2026-05-03 21:08 42.15756 -2.08692 34985 ft 405 kts 208°
2026-05-03 21:09 42.10685 -2.12031 34997 ft 405 kts 208°
2026-05-03 21:09 42.05612 -2.15371 35008 ft 405 kts 208°
2026-05-03 21:10 42.00540 -2.18702 35016 ft 405 kts 208°
2026-05-03 21:10 41.95494 -2.22010 34998 ft 405 kts 209°
2026-05-03 21:11 41.90422 -2.25339 35011 ft 405 kts 209°
2026-05-03 21:11 41.85346 -2.28664 35017 ft 406 kts 209°
2026-05-03 21:12 41.80266 -2.31975 35043 ft 405 kts 209°
2026-05-03 21:12 41.75186 -2.35286 35037 ft 405 kts 209°
2026-05-03 21:13 41.70122 -2.38580 35021 ft 404 kts 209°
2026-05-03 21:13 41.65084 -2.41850 35022 ft 404 kts 209°
2026-05-03 21:14 41.60023 -2.45135 35021 ft 404 kts 209°
2026-05-03 21:14 41.54972 -2.48407 35020 ft 404 kts 209°
2026-05-03 21:15 41.49908 -2.51677 35000 ft 403 kts 209°
2026-05-03 21:15 41.44856 -2.54940 35007 ft 403 kts 209°
2026-05-03 21:16 41.40650 -2.57653 35010 ft 403 kts 209°
2026-05-03 21:16 41.34775 -2.61428 35010 ft 403 kts 209°
2026-05-03 21:17 41.30704 -2.64484 34990 ft 399 kts 217°
2026-05-03 21:17 41.26169 -2.68671 35018 ft 399 kts 218°
2026-05-03 21:18 41.21610 -2.72878 35022 ft 399 kts 217°
2026-05-03 21:18 41.17048 -2.77067 35018 ft 399 kts 217°
2026-05-03 21:19 41.12478 -2.81259 35019 ft 398 kts 217°
2026-05-03 21:19 41.07903 -2.85446 34998 ft 398 kts 217°
2026-05-03 21:20 41.03338 -2.89612 35004 ft 398 kts 217°
2026-05-03 21:20 40.98770 -2.93775 35007 ft 399 kts 218°
2026-05-03 21:21 40.94202 -2.97952 35009 ft 399 kts 218°
2026-05-03 21:21 40.89629 -3.02121 35012 ft 398 kts 217°
2026-05-03 21:22 40.85055 -3.06272 35019 ft 398 kts 218°
2026-05-03 21:22 40.80479 -3.10405 35016 ft 398 kts 218°
2026-05-03 21:23 40.75941 -3.14508 35014 ft 397 kts 218°
2026-05-03 21:23 40.71383 -3.18631 35017 ft 397 kts 218°
2026-05-03 21:24 40.66822 -3.22743 35011 ft 397 kts 218°
2026-05-03 21:24 40.62264 -3.26849 35015 ft 397 kts 218°
2026-05-03 21:25 40.57707 -3.30951 35014 ft 397 kts 218°
2026-05-03 21:25 40.53141 -3.35048 35019 ft 397 kts 217°
2026-05-03 21:26 40.48575 -3.39133 35018 ft 397 kts 217°
2026-05-03 21:26 40.44010 -3.43215 35015 ft 397 kts 217°
2026-05-03 21:27 40.39452 -3.47280 35020 ft 396 kts 218°
2026-05-03 21:27 40.34905 -3.51331 35017 ft 394 kts 218°
2026-05-03 21:28 40.30362 -3.55370 35020 ft 394 kts 218°
2026-05-03 21:28 40.25854 -3.59366 35021 ft 393 kts 218°
2026-05-03 21:29 40.21326 -3.63392 35014 ft 393 kts 218°
2026-05-03 21:29 40.16799 -3.67408 35003 ft 393 kts 218°
2026-05-03 21:30 40.12265 -3.71411 35002 ft 393 kts 218°
2026-05-03 21:30 40.07735 -3.75402 34991 ft 392 kts 218°
2026-05-03 21:31 40.03212 -3.79385 34996 ft 392 kts 218°
2026-05-03 21:31 39.98687 -3.83372 35015 ft 392 kts 218°
2026-05-03 21:32 39.94164 -3.87340 34980 ft 391 kts 218°
2026-05-03 21:32 39.89644 -3.91300 34988 ft 391 kts 218°
2026-05-03 21:33 39.85134 -3.95243 34999 ft 391 kts 218°
2026-05-03 21:33 39.80619 -3.99186 35001 ft 390 kts 218°
2026-05-03 21:34 39.76104 -4.03120 35001 ft 390 kts 218°
2026-05-03 21:34 39.71598 -4.07044 34977 ft 390 kts 218°
2026-05-03 21:35 39.67094 -4.10972 34992 ft 390 kts 218°
2026-05-03 21:35 39.62586 -4.14887 34999 ft 390 kts 218°
2026-05-03 21:36 39.58073 -4.18798 35001 ft 390 kts 218°
2026-05-03 21:36 39.53562 -4.22700 35008 ft 390 kts 218°
2026-05-03 21:37 39.49052 -4.26592 34980 ft 389 kts 218°
2026-05-03 21:37 39.44565 -4.30457 34995 ft 390 kts 218°
2026-05-03 21:38 39.40052 -4.34338 35001 ft 389 kts 218°
2026-05-03 21:38 39.35534 -4.38224 35006 ft 389 kts 218°
2026-05-03 21:39 39.31021 -4.42104 35007 ft 389 kts 218°
2026-05-03 21:39 39.26508 -4.45980 34991 ft 389 kts 218°
2026-05-03 21:40 39.22019 -4.49824 34997 ft 389 kts 218°
2026-05-03 21:40 39.17497 -4.53688 34999 ft 389 kts 218°
2026-05-03 21:41 39.12976 -4.57545 35013 ft 389 kts 218°
2026-05-03 21:41 39.08457 -4.61396 35015 ft 389 kts 218°
2026-05-03 21:42 39.03939 -4.65242 35011 ft 389 kts 218°
2026-05-03 21:42 39.01679 -4.67164 34838 ft 390 kts 218°
2026-05-03 21:42 38.99410 -4.69091 34598 ft 390 kts 218°
2026-05-03 21:43 38.97143 -4.71009 34366 ft 390 kts 218°
2026-05-03 21:43 38.94902 -4.72904 34139 ft 391 kts 218°
2026-05-03 21:43 38.92628 -4.74828 33883 ft 391 kts 218°
2026-05-03 21:43 38.90341 -4.76761 33607 ft 392 kts 218°
2026-05-03 21:44 38.88061 -4.78689 33343 ft 393 kts 218°
2026-05-03 21:44 38.85776 -4.80619 33080 ft 393 kts 218°
2026-05-03 21:44 38.83482 -4.82556 32812 ft 394 kts 218°
2026-05-03 21:44 38.81186 -4.84494 32550 ft 395 kts 218°
2026-05-03 21:45 38.78886 -4.86436 32273 ft 396 kts 218°
2026-05-03 21:45 38.76582 -4.88375 32021 ft 397 kts 218°
2026-05-03 21:45 38.74303 -4.90290 31765 ft 398 kts 218°
2026-05-03 21:45 38.71984 -4.92241 31514 ft 399 kts 218°
2026-05-03 21:46 38.69664 -4.94193 31262 ft 399 kts 218°
2026-05-03 21:46 38.67646 -4.95890 31066 ft 398 kts 218°
2026-05-03 21:46 38.65333 -4.97832 30821 ft 396 kts 218°
2026-05-03 21:46 38.63032 -4.99755 30399 ft 393 kts 218°
2026-05-03 21:47 38.60750 -5.01658 29817 ft 390 kts 218°
2026-05-03 21:47 38.58490 -5.03544 29247 ft 386 kts 218°
2026-05-03 21:47 38.56250 -5.05409 28702 ft 382 kts 217°
2026-05-03 21:47 38.54042 -5.07250 28125 ft 377 kts 218°
2026-05-03 21:48 38.51838 -5.09063 27623 ft 374 kts 214°
2026-05-03 21:48 38.49471 -5.10490 26980 ft 378 kts 206°
2026-05-03 21:48 38.46935 -5.11515 26269 ft 382 kts 203°
2026-05-03 21:48 38.44401 -5.12500 25744 ft 379 kts 203°
2026-05-03 21:49 38.41922 -5.13463 25210 ft 376 kts 202°
2026-05-03 21:49 38.39427 -5.14435 24688 ft 373 kts 202°
2026-05-03 21:49 38.36946 -5.15403 24180 ft 371 kts 202°
2026-05-03 21:49 38.34488 -5.16363 23682 ft 369 kts 202°
2026-05-03 21:50 38.32042 -5.17318 23139 ft 367 kts 202°
2026-05-03 21:50 38.29613 -5.18267 22676 ft 363 kts 202°
2026-05-03 21:50 38.27208 -5.19210 22192 ft 359 kts 202°
2026-05-03 21:50 38.24826 -5.20142 21749 ft 356 kts 202°
2026-05-03 21:51 38.22469 -5.21062 21305 ft 353 kts 202°
2026-05-03 21:51 38.20126 -5.21973 20856 ft 350 kts 201°
2026-05-03 21:51 38.17806 -5.22875 20410 ft 347 kts 201°
2026-05-03 21:51 38.15501 -5.23775 19961 ft 343 kts 201°
2026-05-03 21:52 38.13226 -5.24665 19514 ft 341 kts 201°
2026-05-03 21:52 38.10991 -5.25537 19041 ft 339 kts 201°
2026-05-03 21:52 38.08714 -5.26423 18580 ft 337 kts 201°
2026-05-03 21:52 38.06506 -5.27279 18071 ft 335 kts 201°
2026-05-03 21:53 38.04289 -5.28137 17597 ft 331 kts 201°
2026-05-03 21:53 38.02098 -5.28984 17136 ft 328 kts 201°
2026-05-03 21:53 37.99925 -5.29823 16657 ft 325 kts 201°
2026-05-03 21:53 37.97766 -5.30657 16187 ft 323 kts 201°
2026-05-03 21:54 37.95626 -5.31484 15723 ft 320 kts 200°
2026-05-03 21:54 37.93508 -5.32301 15264 ft 317 kts 200°
2026-05-03 21:54 37.91402 -5.33115 14799 ft 315 kts 201°
2026-05-03 21:54 37.89310 -5.33925 14353 ft 313 kts 201°
2026-05-03 21:55 37.87933 -5.34455 14049 ft 313 kts 201°
2026-05-03 21:55 37.85858 -5.35255 13565 ft 311 kts 201°
2026-05-03 21:55 37.83791 -5.36051 13093 ft 309 kts 200°
2026-05-03 21:55 37.81746 -5.36836 12636 ft 306 kts 200°
2026-05-03 21:56 37.79718 -5.37615 12204 ft 303 kts 200°
2026-05-03 21:56 37.77730 -5.38453 11767 ft 299 kts 206°
2026-05-03 21:56 37.75932 -5.39716 11345 ft 294 kts 217°
2026-05-03 21:56 37.74374 -5.41361 10915 ft 291 kts 223°
2026-05-03 21:57 37.72867 -5.43064 10553 ft 288 kts 223°
2026-05-03 21:57 37.71399 -5.44711 10425 ft 277 kts 223°
2026-05-03 21:57 37.69981 -5.46304 10214 ft 270 kts 223°
2026-05-03 21:57 37.68585 -5.47873 10096 ft 268 kts 223°
2026-05-03 21:58 37.67190 -5.49439 10015 ft 267 kts 223°
2026-05-03 21:58 37.65793 -5.51001 10025 ft 268 kts 223°
2026-05-03 21:58 37.64414 -5.52550 10027 ft 268 kts 223°
2026-05-03 21:58 37.63010 -5.54151 10027 ft 269 kts 223°
2026-05-03 21:59 37.61643 -5.55715 10026 ft 268 kts 223°
2026-05-03 21:59 37.60262 -5.57297 10027 ft 268 kts 223°
2026-05-03 21:59 37.58880 -5.58877 10027 ft 268 kts 223°
2026-05-03 21:59 37.57498 -5.60459 10021 ft 267 kts 224°
2026-05-03 22:00 37.56117 -5.62037 9834 ft 267 kts 224°
2026-05-03 22:00 37.54726 -5.63570 9545 ft 266 kts 217°
2026-05-03 22:00 37.52990 -5.64327 9262 ft 272 kts 184°
2026-05-03 22:00 37.51136 -5.63725 8988 ft 283 kts 155°
2026-05-03 22:01 37.49520 -5.62277 8692 ft 288 kts 144°
2026-05-03 22:01 37.47975 -5.60675 8410 ft 287 kts 144°
2026-05-03 22:01 37.46437 -5.59094 8130 ft 283 kts 144°
2026-05-03 22:01 37.44925 -5.57543 7853 ft 278 kts 143°
2026-05-03 22:02 37.43431 -5.56012 7579 ft 275 kts 143°
2026-05-03 22:02 37.41960 -5.54501 7288 ft 272 kts 143°
2026-05-03 22:02 37.40490 -5.52992 6945 ft 272 kts 143°
2026-05-03 22:02 37.39047 -5.51508 6615 ft 271 kts 143°
2026-05-03 22:03 37.37589 -5.50011 6268 ft 271 kts 142°
2026-05-03 22:03 37.36187 -5.48438 5907 ft 271 kts 129°
2026-05-03 22:03 37.35383 -5.46325 5575 ft 270 kts 101°
2026-05-03 22:03 37.35472 -5.44000 5273 ft 268 kts 71°
2026-05-03 22:04 37.36423 -5.42025 4975 ft 264 kts 41°
2026-05-03 22:04 37.37978 -5.40906 4672 ft 256 kts 10°
2026-05-03 22:04 37.39698 -5.40973 4362 ft 246 kts 338°
2026-05-03 22:04 37.41085 -5.42117 4072 ft 236 kts 306°
2026-05-03 22:05 37.41775 -5.43883 3977 ft 218 kts 278°
2026-05-03 22:05 37.41847 -5.45737 3999 ft 213 kts 268°
2026-05-03 22:05 37.41847 -5.47595 3984 ft 212 kts 268°
2026-05-03 22:05 37.41847 -5.49458 3980 ft 213 kts 269°
2026-05-03 22:06 37.41848 -5.51319 3980 ft 213 kts 269°
2026-05-03 22:06 37.41848 -5.53189 3981 ft 213 kts 269°
2026-05-03 22:06 37.41848 -5.55042 3977 ft 207 kts 269°
2026-05-03 22:06 37.41849 -5.56756 3994 ft 186 kts 269°
2026-05-03 22:07 37.41848 -5.58362 3986 ft 182 kts 269°
2026-05-03 22:07 37.41847 -5.59948 3983 ft 181 kts 268°
2026-05-03 22:07 37.41846 -5.61531 3968 ft 181 kts 269°
2026-05-03 22:07 37.41845 -5.63119 3834 ft 181 kts 269°
2026-05-03 22:08 37.41843 -5.64687 3623 ft 176 kts 269°
2026-05-03 22:08 37.41842 -5.66188 3408 ft 168 kts 269°
2026-05-03 22:08 37.41841 -5.67608 3199 ft 160 kts 269°
2026-05-03 22:08 37.41839 -5.68986 2980 ft 155 kts 269°
2026-05-03 22:09 37.41837 -5.70325 2788 ft 151 kts 269°
2026-05-03 22:09 37.41835 -5.71643 2588 ft 150 kts 269°
2026-05-03 22:09 37.41833 -5.72942 2412 ft 147 kts 269°
2026-05-03 22:10 37.41828 -5.75489 2009 ft 144 kts 269°
2026-05-03 22:10 37.41826 -5.76751 1814 ft 144 kts 270°
2026-05-03 22:10 37.41823 -5.78013 1619 ft 144 kts 269°
2026-05-03 22:10 37.41821 -5.79274 1424 ft 144 kts 269°
2026-05-03 22:11 37.41818 -5.80536 1226 ft 144 kts 269°
2026-05-03 22:11 37.41815 -5.81794 1040 ft 144 kts 269°
2026-05-03 22:11 37.41812 -5.83048 838 ft 144 kts 268°
2026-05-03 22:11 37.41809 -5.84301 650 ft 142 kts 266°
2026-05-03 22:12 37.41805 -5.85554 458 ft 144 kts 266°
2026-05-03 22:12 37.41801 -5.86805 260 ft 145 kts 266°
2026-05-03 22:12 37.41796 -5.88084 118 ft 141 kts 266°
2026-05-03 22:12 37.41792 -5.89092 101 ft 78 kts 269°
2026-05-03 22:13 37.41789 -5.89530 100 ft 34 kts 271°
2026-05-03 22:13 37.41811 -5.89757 99 ft 22 kts 297°
2026-05-03 22:13 37.41895 -5.89830 99 ft 13 kts 337°
2026-05-03 22:13 37.41986 -5.89875 97 ft 15 kts 336°
2026-05-03 22:14 37.42088 -5.89930 95 ft 14 kts 343°
2026-05-03 22:14 37.42169 -5.89877 94 ft 12 kts 44°
2026-05-03 22:14 37.42203 -5.89866 94 ft 4 kts 327°
2026-05-03 22:14 37.42226 -5.89892 94 ft 5 kts 317°
2026-05-03 22:15 37.42245 -5.89914 97 ft 0 kts 316°